Location: Champignolles
(47.0543°N, 4.5663°E)
Time: 06:20:01
(UTC+00:00)

Cosmos 1515 Rocket - Visible Passes

Search period start: 17 April 2021 00:00
Search period end: 27 April 2021 00:00
Orbit: 607 x 629 km, 82.5° (Epoch: 16 April)

Date Brightness Start Highest point End Pass type
(mag) Time Alt. Az. Time Alt. Az. Time Alt. Az.
17 Apr 5.3 00:53:04 28° NNW 00:53:04 28° NNW 00:55:33 10° N visible
17 Apr 5.7 23:32:46 22° NE 23:32:46 22° NE 23:34:41 10° NNE visible
18 Apr 5.6 01:09:54 21° NW 01:09:54 21° NW 01:12:11 10° NNW visible
18 Apr 5.3 23:49:36 30° NNE 23:49:36 30° NNE 23:51:58 10° NNE visible
19 Apr 5.9 01:26:43 14° NW 01:26:43 14° NW 01:28:24 10° NNW visible
20 Apr 5.1 00:06:25 34° N 00:06:25 34° N 00:09:02 10° N visible
20 Apr 5.9 22:46:06 16° NE 22:46:06 16° NE 22:47:31 10° NE visible
21 Apr 5.2 00:23:14 30° NNW 00:23:14 30° NNW 00:25:54 10° N visible
21 Apr 5.4 23:02:54 25° NE 23:02:54 25° NE 23:05:04 10° NNE visible
22 Apr 5.6 00:40:01 21° NW 00:40:01 21° NW 00:42:32 10° NNW visible
22 Apr 5.0 23:19:41 35° NNE 23:19:41 35° NNE 23:22:20 10° NNE visible
23 Apr 6.0 00:56:49 14° WNW 00:56:49 14° WNW 00:58:43 10° NNW visible
23 Apr 6.1 21:59:21 11° ENE 21:59:21 11° ENE 21:59:45 10° NE visible
23 Apr 4.8 23:36:28 39° N 23:36:28 39° N 23:39:24 10° N visible
24 Apr 5.6 22:16:06 18° ENE 22:16:06 18° ENE 22:17:55 10° NE visible
24 Apr 5.1 23:53:13 32° NW 23:53:13 32° NW 23:56:16 10° N visible
25 Apr 5.1 22:32:51 29° NE 22:32:51 29° NE 22:35:27 10° NNE visible
26 Apr 5.5 00:09:58 22° NW 00:09:58 22° NW 00:12:53 10° NNW visible
26 Apr 4.5 22:49:35 43° NNE 22:49:35 43° NNE 22:52:42 10° NNE visible
